Weather in Sliven

Bulgaria     42°39′50″N   26°20′21″E
temp.,
°C
wind,
m/s
gust,
m/s
humid.,
%
clouds,
%
prec.,
mm/h
press.,
hPa
HPBL,
m
11 may, tue
tue1100:00+4ssw11790 0.0 102314
03:00+4ssw01710 0.0 102212
06:00+3sse01670 0.0 102112
09:00+11s11520 0.0 1020250
12:00+15sse32470 0.0 1019842
15:00+17sse32480 0.0 1017955
18:00+15sse33570 0.0 1016658
21:00+7e12830 0.0 101713
12 may, wed
wed1200:00+6sse01550 0.0 101713
03:00+6wsw01420 0.0 101512
06:00+5sw01420 0.0 101311
09:00+11s22460 0.0 1012248
12:00+16s32532 0.0 1010636
15:00+17s335754 0.0 1009869
18:00+16s566326 0.0 1008944
21:00+10ese2488100 0.0 1008110
13 may, thu
thu1300:00+9ese2585100 0.2 1008113
03:00+8wsw119292 0.2 100815
06:00+10ssw118561 0.0 100712
09:00+13s117598 0.0 1008280
12:00+16s226597 0.1 1007746
15:00+18s346011 0.2 10071065
18:00+17s457127 0.3 10061001
21:00+13e129025 1.1 100713
14 may, fri
fri1400:00+11e12974 0.7 100715
03:00+11nw2295100 1.7 100825
06:00+11nnw2296100 0.5 100972
09:00+15sw127716 0.7 1010343
12:00+18ssw226417 0.9 10101166
15:00+18sw34621 4.8 10101282
18:00+15nw5684100 4.3 1011709
21:00+10n228813 12.9 101324
15 may, sat
sat1500:00+10wnw11835 0.0 101410
03:00+9wnw128188 0.0 101411
06:00+10nw117616 0.0 101410
09:00+15s22700 0.0 1014251
12:00+18s346093 0.0 1013876
15:00+19sse456525 0.1 10111064
18:00+18sse51078100 1.1 10101050
21:00+12e3993100 1.9 1009241